Year,Month,Day,Hour,Minute,Value (Times are PST for windspeed in km/hr)
2018,01,20,00,00,11.10
2018,01,20,00,01,11.30
2018,01,20,00,02,11.30
2018,01,20,00,03,11.30
2018,01,20,00,04,11.30
2018,01,20,00,05,11.30
2018,01,20,00,06,10.70
2018,01,20,00,07,9.60
2018,01,20,00,08,14.00
2018,01,20,00,09,6.70
2018,01,20,00,10,8.20
2018,01,20,00,11,5.90
2018,01,20,00,12,5.40
2018,01,20,00,13,6.70
2018,01,20,00,14,5.40
2018,01,20,00,15,7.80
2018,01,20,00,16,13.20
2018,01,20,00,17,17.30
2018,01,20,00,18,12.70
2018,01,20,00,19,13.00
2018,01,20,00,20,10.10
2018,01,20,00,21,8.40
2018,01,20,00,22,11.20
2018,01,20,00,23,10.60
2018,01,20,00,24,14.10
2018,01,20,00,25,12.20
2018,01,20,00,26,10.60
2018,01,20,00,27,14.50
2018,01,20,00,28,11.40
2018,01,20,00,29,16.80
2018,01,20,00,30,17.80
2018,01,20,00,31,17.50
2018,01,20,00,32,13.30
2018,01,20,00,33,12.60
2018,01,20,00,34,14.00
2018,01,20,00,35,11.70
2018,01,20,00,36,9.40
2018,01,20,00,37,14.60
2018,01,20,00,38,10.40
2018,01,20,00,39,10.10
2018,01,20,00,40,8.70
2018,01,20,00,41,11.50
2018,01,20,00,42,11.70
2018,01,20,00,43,10.20
2018,01,20,00,44,9.70
2018,01,20,00,45,12.10
2018,01,20,00,46,10.60
2018,01,20,00,47,6.70
2018,01,20,00,48,13.30
2018,01,20,00,49,19.90
2018,01,20,00,50,11.40
2018,01,20,00,51,13.10
2018,01,20,00,52,15.40
2018,01,20,00,53,12.30
2018,01,20,00,54,13.80
2018,01,20,00,55,11.30
2018,01,20,00,56,15.00
2018,01,20,00,57,11.20
2018,01,20,00,58,10.80
2018,01,20,00,59,12.50
2018,01,20,01,00,15.00
2018,01,20,01,01,8.50
2018,01,20,01,02,11.80
2018,01,20,01,03,11.50
2018,01,20,01,04,5.70
2018,01,20,01,05,8.80
2018,01,20,01,06,13.90
2018,01,20,01,07,11.10
2018,01,20,01,08,7.90
2018,01,20,01,09,12.90
2018,01,20,01,10,7.90
2018,01,20,01,11,11.30
2018,01,20,01,12,10.20
2018,01,20,01,13,10.10
2018,01,20,01,14,9.80
2018,01,20,01,15,13.90
2018,01,20,01,16,12.90
2018,01,20,01,17,7.60
2018,01,20,01,18,9.10
2018,01,20,01,19,12.40
2018,01,20,01,20,10.70
2018,01,20,01,21,6.40
2018,01,20,01,22,14.90
2018,01,20,01,23,12.00
2018,01,20,01,24,11.20
2018,01,20,01,25,10.70
2018,01,20,01,26,9.50
2018,01,20,01,27,11.70
2018,01,20,01,28,11.50
2018,01,20,01,29,10.50
2018,01,20,01,30,4.90
2018,01,20,01,31,10.00
2018,01,20,01,32,6.50
2018,01,20,01,33,11.40
2018,01,20,01,34,15.80
2018,01,20,01,35,14.60
2018,01,20,01,36,13.90
2018,01,20,01,37,14.20
2018,01,20,01,38,14.10
2018,01,20,01,39,10.00
2018,01,20,01,40,9.50
2018,01,20,01,41,14.20
2018,01,20,01,42,9.00
2018,01,20,01,43,6.70
2018,01,20,01,44,10.70
2018,01,20,01,45,10.30
2018,01,20,01,46,7.70
2018,01,20,01,47,8.70
2018,01,20,01,48,8.30
2018,01,20,01,49,12.20
2018,01,20,01,50,7.30
2018,01,20,01,51,7.20
2018,01,20,01,52,6.60
2018,01,20,01,53,8.40
2018,01,20,01,54,8.00
2018,01,20,01,55,6.30
2018,01,20,01,56,6.30
2018,01,20,01,57,13.90
2018,01,20,01,58,9.40
2018,01,20,01,59,13.00
2018,01,20,02,00,9.50
2018,01,20,02,01,6.00
2018,01,20,02,02,6.40
2018,01,20,02,03,7.70
2018,01,20,02,04,3.20
2018,01,20,02,05,5.40
2018,01,20,02,06,8.60
2018,01,20,02,07,8.90
2018,01,20,02,08,6.10
2018,01,20,02,09,14.10
2018,01,20,02,10,11.20
2018,01,20,02,11,11.30
2018,01,20,02,12,6.00
2018,01,20,02,13,5.40
2018,01,20,02,14,5.90
2018,01,20,02,15,8.60
2018,01,20,02,16,5.40
2018,01,20,02,17,6.50
2018,01,20,02,18,9.40
2018,01,20,02,19,9.00
2018,01,20,02,20,7.10
2018,01,20,02,21,2.30
2018,01,20,02,22,0.70
2018,01,20,02,23,7.50
2018,01,20,02,24,4.40
2018,01,20,02,25,7.20
2018,01,20,02,26,5.50
2018,01,20,02,27,1.10
2018,01,20,02,28,2.70
2018,01,20,02,29,5.30
2018,01,20,02,30,4.30
2018,01,20,02,31,4.50
2018,01,20,02,32,2.90
2018,01,20,02,33,8.50
2018,01,20,02,34,9.20
2018,01,20,02,35,5.80
2018,01,20,02,36,4.80
2018,01,20,02,37,9.40
2018,01,20,02,38,6.60
2018,01,20,02,39,5.70
2018,01,20,02,40,5.30
2018,01,20,02,41,4.00
2018,01,20,02,42,5.70
2018,01,20,02,43,3.30
2018,01,20,02,44,5.50
2018,01,20,02,45,4.40
2018,01,20,02,46,3.50
2018,01,20,02,47,8.80
2018,01,20,02,48,4.60
2018,01,20,02,49,7.50
2018,01,20,02,50,7.80
2018,01,20,02,51,6.30
2018,01,20,02,52,5.10
2018,01,20,02,53,3.60
2018,01,20,02,54,4.10
2018,01,20,02,55,5.10
2018,01,20,02,56,4.30
2018,01,20,02,57,4.20
2018,01,20,02,58,6.30
2018,01,20,02,59,3.20
2018,01,20,03,00,7.20
2018,01,20,03,01,3.80
2018,01,20,03,02,3.50
2018,01,20,03,03,3.90
2018,01,20,03,04,2.80
2018,01,20,03,05,1.80
2018,01,20,03,06,3.50
2018,01,20,03,07,5.40
2018,01,20,03,08,4.30
2018,01,20,03,09,4.50
2018,01,20,03,10,3.20
2018,01,20,03,11,2.40
2018,01,20,03,12,4.50
2018,01,20,03,13,4.80
2018,01,20,03,14,4.30
2018,01,20,03,15,1.70
2018,01,20,03,16,1.40
2018,01,20,03,17,2.90
2018,01,20,03,18,0.60
2018,01,20,03,19,0.70
2018,01,20,03,20,0.00
2018,01,20,03,21,0.00
2018,01,20,03,22,0.00
2018,01,20,03,23,0.10
2018,01,20,03,24,0.00
2018,01,20,03,25,1.10
2018,01,20,03,26,3.60
2018,01,20,03,27,2.90
2018,01,20,03,28,1.20
2018,01,20,03,29,3.00
2018,01,20,03,30,2.40
2018,01,20,03,31,0.50
2018,01,20,03,32,1.10
2018,01,20,03,33,1.40
2018,01,20,03,34,0.10
2018,01,20,03,35,0.60
2018,01,20,03,36,1.30
2018,01,20,03,37,0.00
2018,01,20,03,38,0.00
2018,01,20,03,39,1.10
2018,01,20,03,40,1.40
2018,01,20,03,41,0.50
2018,01,20,03,42,2.80
2018,01,20,03,43,3.30
2018,01,20,03,44,3.30
2018,01,20,03,45,3.80
2018,01,20,03,46,5.00
2018,01,20,03,47,4.00
2018,01,20,03,48,2.70
2018,01,20,03,49,1.90
2018,01,20,03,50,3.30
2018,01,20,03,51,3.50
2018,01,20,03,52,4.50
2018,01,20,03,53,4.50
2018,01,20,03,54,7.50
2018,01,20,03,55,3.70
2018,01,20,03,56,6.10
2018,01,20,03,57,5.20
2018,01,20,03,58,7.00
2018,01,20,03,59,5.60
2018,01,20,04,00,8.30
2018,01,20,04,01,5.70
2018,01,20,04,02,4.40
2018,01,20,04,03,5.10
2018,01,20,04,04,5.90
2018,01,20,04,05,5.40
2018,01,20,04,06,4.80
2018,01,20,04,07,3.90
2018,01,20,04,08,1.00
2018,01,20,04,09,5.10
2018,01,20,04,10,5.20
2018,01,20,04,11,4.70
2018,01,20,04,12,0.90
2018,01,20,04,13,0.00
2018,01,20,04,14,0.10
2018,01,20,04,15,0.20
2018,01,20,04,16,0.00
2018,01,20,04,17,0.00
2018,01,20,04,18,0.00
2018,01,20,04,19,0.00
2018,01,20,04,20,0.00
2018,01,20,04,21,1.20
2018,01,20,04,22,3.10
2018,01,20,04,23,5.10
2018,01,20,04,24,1.90
2018,01,20,04,25,3.20
2018,01,20,04,26,1.10
2018,01,20,04,27,0.40
2018,01,20,04,28,3.70
2018,01,20,04,29,4.00
2018,01,20,04,30,1.70
2018,01,20,04,31,2.00
2018,01,20,04,32,1.90
2018,01,20,04,33,3.40
2018,01,20,04,34,4.20
2018,01,20,04,35,4.40
2018,01,20,04,36,4.70
2018,01,20,04,37,3.80
2018,01,20,04,38,1.30
2018,01,20,04,39,4.80
2018,01,20,04,40,4.00
2018,01,20,04,41,5.20
2018,01,20,04,42,4.90
2018,01,20,04,43,8.10
2018,01,20,04,44,2.70
2018,01,20,04,45,4.50
2018,01,20,04,46,2.20
2018,01,20,04,47,2.60
2018,01,20,04,48,2.60
2018,01,20,04,49,2.00
2018,01,20,04,50,5.40
2018,01,20,04,51,5.80
2018,01,20,04,52,2.70
2018,01,20,04,53,2.50
2018,01,20,04,54,3.00
2018,01,20,04,55,4.60
2018,01,20,04,56,2.90
2018,01,20,04,57,1.00
2018,01,20,04,58,4.20
2018,01,20,04,59,4.70
2018,01,20,05,00,5.10
2018,01,20,05,01,3.20
2018,01,20,05,02,2.70
2018,01,20,05,03,4.70
2018,01,20,05,04,4.40
2018,01,20,05,05,3.80
2018,01,20,05,06,2.40
2018,01,20,05,07,4.00
2018,01,20,05,08,4.20
2018,01,20,05,09,4.20
2018,01,20,05,10,5.40
2018,01,20,05,11,4.20
2018,01,20,05,12,5.60
2018,01,20,05,13,6.90
2018,01,20,05,14,9.20
2018,01,20,05,15,9.80
2018,01,20,05,16,9.20
2018,01,20,05,17,7.30
2018,01,20,05,18,8.70
2018,01,20,05,19,7.90
2018,01,20,05,20,7.50
2018,01,20,05,21,7.20
2018,01,20,05,22,6.70
2018,01,20,05,23,5.40
2018,01,20,05,24,6.00
2018,01,20,05,25,5.80
2018,01,20,05,26,5.20
2018,01,20,05,27,3.00
2018,01,20,05,28,5.20
2018,01,20,05,29,3.60
2018,01,20,05,30,4.20
2018,01,20,05,31,3.00
2018,01,20,05,32,2.30
2018,01,20,05,33,4.20
2018,01,20,05,34,4.20
2018,01,20,05,35,3.30
2018,01,20,05,36,0.40
2018,01,20,05,37,1.10
2018,01,20,05,38,4.30
2018,01,20,05,39,3.30
2018,01,20,05,40,5.10
2018,01,20,05,41,4.20
2018,01,20,05,42,3.90
2018,01,20,05,43,3.90
2018,01,20,05,44,1.70
2018,01,20,05,45,3.50
2018,01,20,05,46,4.10
2018,01,20,05,47,1.20
2018,01,20,05,48,1.40
2018,01,20,05,49,1.30
2018,01,20,05,50,2.70
2018,01,20,05,51,0.10
2018,01,20,05,52,0.50
2018,01,20,05,53,0.10
2018,01,20,05,54,0.00
2018,01,20,05,55,2.00
2018,01,20,05,56,1.70
2018,01,20,05,57,0.80
2018,01,20,05,58,0.10
2018,01,20,05,59,0.00
2018,01,20,06,00,0.20
2018,01,20,06,01,0.70
2018,01,20,06,02,0.00
2018,01,20,06,03,2.60
2018,01,20,06,04,3.90
2018,01,20,06,05,4.50
2018,01,20,06,06,1.60
2018,01,20,06,07,1.00
2018,01,20,06,08,1.60
2018,01,20,06,09,4.80
2018,01,20,06,10,3.90
2018,01,20,06,11,3.40
2018,01,20,06,12,1.30
2018,01,20,06,13,0.40
2018,01,20,06,14,0.10
2018,01,20,06,15,1.00
2018,01,20,06,16,1.30
2018,01,20,06,17,0.00
2018,01,20,06,18,0.30
2018,01,20,06,19,0.00
2018,01,20,06,20,0.00
2018,01,20,06,21,0.00
2018,01,20,06,22,0.00
2018,01,20,06,23,0.00
2018,01,20,06,24,0.00
2018,01,20,06,25,0.00
2018,01,20,06,26,0.10
2018,01,20,06,27,0.00
2018,01,20,06,28,0.00
2018,01,20,06,29,0.00
2018,01,20,06,30,0.00
2018,01,20,06,31,0.00
2018,01,20,06,32,0.00
2018,01,20,06,33,0.00
2018,01,20,06,34,0.00
2018,01,20,06,35,0.00
2018,01,20,06,36,0.00
2018,01,20,06,37,0.00
2018,01,20,06,38,0.00
2018,01,20,06,39,0.00
2018,01,20,06,40,0.00
2018,01,20,06,41,0.00
2018,01,20,06,42,0.00
2018,01,20,06,43,0.10
2018,01,20,06,44,0.20
2018,01,20,06,45,0.00
2018,01,20,06,46,0.00
2018,01,20,06,47,0.00
2018,01,20,06,48,0.00
2018,01,20,06,49,0.00
2018,01,20,06,50,0.00
2018,01,20,06,51,0.00
2018,01,20,06,52,0.00
2018,01,20,06,53,0.00
2018,01,20,06,54,0.00
2018,01,20,06,55,0.00
2018,01,20,06,56,0.00
2018,01,20,06,57,0.00
2018,01,20,06,58,1.50
2018,01,20,06,59,2.50
2018,01,20,07,00,4.20
2018,01,20,07,01,1.10
2018,01,20,07,02,1.20
2018,01,20,07,03,1.50
2018,01,20,07,04,2.10
2018,01,20,07,05,4.20
2018,01,20,07,06,5.20
2018,01,20,07,07,4.30
2018,01,20,07,08,2.00
2018,01,20,07,09,0.70
2018,01,20,07,10,2.70
2018,01,20,07,11,3.90
2018,01,20,07,12,0.40
2018,01,20,07,13,1.40
2018,01,20,07,14,1.60
2018,01,20,07,15,0.70
2018,01,20,07,16,0.00
2018,01,20,07,17,1.50
2018,01,20,07,18,4.60
2018,01,20,07,19,4.20
2018,01,20,07,20,3.90
2018,01,20,07,21,2.30
2018,01,20,07,22,0.90
2018,01,20,07,23,4.00
2018,01,20,07,24,5.50
2018,01,20,07,25,2.60
2018,01,20,07,26,1.40
2018,01,20,07,27,0.10
2018,01,20,07,28,0.20
2018,01,20,07,29,0.00
2018,01,20,07,30,0.70
2018,01,20,07,31,1.50
2018,01,20,07,32,2.70
2018,01,20,07,33,2.90
2018,01,20,07,34,3.20
2018,01,20,07,35,1.50
2018,01,20,07,36,2.70
2018,01,20,07,37,0.60
2018,01,20,07,38,2.50
2018,01,20,07,39,1.10
2018,01,20,07,40,0.10
2018,01,20,07,41,0.70
2018,01,20,07,42,0.40
2018,01,20,07,43,0.00
2018,01,20,07,44,0.00
2018,01,20,07,45,0.00
2018,01,20,07,46,0.00
2018,01,20,07,47,0.10
2018,01,20,07,48,0.60
2018,01,20,07,49,0.70
2018,01,20,07,50,0.40
2018,01,20,07,51,1.70
2018,01,20,07,52,4.90
2018,01,20,07,53,3.10
2018,01,20,07,54,2.90
2018,01,20,07,55,3.20
2018,01,20,07,56,4.70
2018,01,20,07,57,5.70
2018,01,20,07,58,6.80
2018,01,20,07,59,5.40
2018,01,20,08,00,4.60
2018,01,20,08,01,3.90
2018,01,20,08,02,4.90
2018,01,20,08,03,4.30
2018,01,20,08,04,5.10
2018,01,20,08,05,5.20
2018,01,20,08,06,6.10
2018,01,20,08,07,4.80
2018,01,20,08,08,4.90
2018,01,20,08,09,3.50
2018,01,20,08,10,4.60
2018,01,20,08,11,1.90
2018,01,20,08,12,2.10
2018,01,20,08,13,4.50
2018,01,20,08,14,1.80
2018,01,20,08,15,2.30
2018,01,20,08,16,2.60
2018,01,20,08,17,1.40
2018,01,20,08,18,0.10
2018,01,20,08,19,0.00
2018,01,20,08,20,0.00
2018,01,20,08,21,0.00
2018,01,20,08,22,0.00
2018,01,20,08,23,0.00
2018,01,20,08,24,0.00
2018,01,20,08,25,0.00
2018,01,20,08,26,0.00
2018,01,20,08,27,0.00
2018,01,20,08,28,0.10
2018,01,20,08,29,0.00
2018,01,20,08,30,0.00
2018,01,20,08,31,0.00
2018,01,20,08,32,0.00
2018,01,20,08,33,0.00
2018,01,20,08,34,0.00
2018,01,20,08,35,0.00
2018,01,20,08,36,0.00
2018,01,20,08,37,0.00
2018,01,20,08,38,0.00
2018,01,20,08,39,0.00
2018,01,20,08,40,0.00
2018,01,20,08,41,0.00
2018,01,20,08,42,0.00
2018,01,20,08,43,0.00
2018,01,20,08,44,0.00
2018,01,20,08,45,0.00
2018,01,20,08,46,0.00
2018,01,20,08,47,0.00
2018,01,20,08,48,0.00
2018,01,20,08,49,0.00
2018,01,20,08,50,0.00
2018,01,20,08,51,0.00
2018,01,20,08,52,0.00
2018,01,20,08,53,0.00
2018,01,20,08,54,0.00
2018,01,20,08,55,0.00
2018,01,20,08,56,0.00
2018,01,20,08,57,0.00
2018,01,20,08,58,1.20
2018,01,20,08,59,0.40
2018,01,20,09,00,0.00
2018,01,20,09,01,0.10
2018,01,20,09,02,0.00
2018,01,20,09,03,0.20
2018,01,20,09,04,0.90
2018,01,20,09,05,0.50
2018,01,20,09,06,0.10
2018,01,20,09,07,1.20
2018,01,20,09,08,0.90
2018,01,20,09,09,0.70
2018,01,20,09,10,0.20
2018,01,20,09,11,0.00
2018,01,20,09,12,0.10
2018,01,20,09,13,0.40
2018,01,20,09,14,2.40
2018,01,20,09,15,1.50
2018,01,20,09,16,0.90
2018,01,20,09,17,5.00
2018,01,20,09,18,6.50
2018,01,20,09,19,4.70
2018,01,20,09,20,6.40
2018,01,20,09,21,5.00
2018,01,20,09,22,4.10
2018,01,20,09,23,5.20
2018,01,20,09,24,6.00
2018,01,20,09,25,4.80
2018,01,20,09,26,5.40
2018,01,20,09,27,10.40
2018,01,20,09,28,12.40
2018,01,20,09,29,7.90
2018,01,20,09,30,8.30
2018,01,20,09,31,7.40
2018,01,20,09,32,8.10
2018,01,20,09,33,13.30
2018,01,20,09,34,8.40
2018,01,20,09,35,5.30
2018,01,20,09,36,6.60
2018,01,20,09,37,10.00
2018,01,20,09,38,12.50
2018,01,20,09,39,7.40
2018,01,20,09,40,8.90
2018,01,20,09,41,12.00
2018,01,20,09,42,6.50
2018,01,20,09,43,9.50
2018,01,20,09,44,13.30
2018,01,20,09,45,12.40
2018,01,20,09,46,12.30
2018,01,20,09,47,11.00
2018,01,20,09,48,9.80
2018,01,20,09,49,10.80
2018,01,20,09,50,9.40
2018,01,20,09,51,12.20
2018,01,20,09,52,14.70
2018,01,20,09,53,16.70
2018,01,20,09,54,9.60
2018,01,20,09,55,7.40
2018,01,20,09,56,11.60
2018,01,20,09,57,13.10
2018,01,20,09,58,10.30
2018,01,20,09,59,9.10
2018,01,20,10,00,12.30
2018,01,20,10,01,9.80
2018,01,20,10,02,7.10
2018,01,20,10,03,11.30
2018,01,20,10,04,10.70
2018,01,20,10,05,6.50
2018,01,20,10,06,7.70
2018,01,20,10,07,11.10
2018,01,20,10,08,13.30
2018,01,20,10,09,11.80
2018,01,20,10,10,12.80
2018,01,20,10,11,17.60
2018,01,20,10,12,11.60
2018,01,20,10,13,14.00
2018,01,20,10,14,9.10
2018,01,20,10,15,16.90
2018,01,20,10,16,9.00
2018,01,20,10,17,9.50
2018,01,20,10,18,6.10
2018,01,20,10,19,12.60
2018,01,20,10,20,9.40
2018,01,20,10,21,9.00
2018,01,20,10,22,6.90
2018,01,20,10,23,10.40
2018,01,20,10,24,8.40
2018,01,20,10,25,7.00
2018,01,20,10,26,6.50
2018,01,20,10,27,10.00
2018,01,20,10,28,10.40
2018,01,20,10,29,11.10
2018,01,20,10,30,8.40
2018,01,20,10,31,7.90
2018,01,20,10,32,6.20
2018,01,20,10,33,8.30
2018,01,20,10,34,12.90
2018,01,20,10,35,6.80
2018,01,20,10,36,7.10
2018,01,20,10,37,9.60
2018,01,20,10,38,10.20
2018,01,20,10,39,13.40
2018,01,20,10,40,9.60
2018,01,20,10,41,13.40
2018,01,20,10,42,11.10
2018,01,20,10,43,12.70
2018,01,20,10,44,10.00
2018,01,20,10,45,7.80
2018,01,20,10,46,10.10
2018,01,20,10,47,13.50
2018,01,20,10,48,9.70
2018,01,20,10,49,17.00
2018,01,20,10,50,10.70
2018,01,20,10,51,9.50
2018,01,20,10,52,8.10
2018,01,20,10,53,10.60
2018,01,20,10,54,9.40
2018,01,20,10,55,13.20
2018,01,20,10,56,13.50
2018,01,20,10,57,10.30
2018,01,20,10,58,14.20
2018,01,20,10,59,12.60
2018,01,20,11,00,13.20
2018,01,20,11,01,9.60
2018,01,20,11,02,4.10
2018,01,20,11,03,6.00
2018,01,20,11,04,4.90
2018,01,20,11,05,9.20
2018,01,20,11,06,9.50
2018,01,20,11,07,8.20
2018,01,20,11,08,9.50
2018,01,20,11,09,8.80
2018,01,20,11,10,10.60
2018,01,20,11,11,10.60
2018,01,20,11,12,7.90
2018,01,20,11,13,6.00
2018,01,20,11,14,8.80
2018,01,20,11,15,5.70
2018,01,20,11,16,4.80
2018,01,20,11,17,7.90
2018,01,20,11,18,11.40
2018,01,20,11,19,9.50
2018,01,20,11,20,11.80
2018,01,20,11,21,5.50
2018,01,20,11,22,6.70
2018,01,20,11,23,6.30
2018,01,20,11,24,3.70
2018,01,20,11,25,4.90
2018,01,20,11,26,3.30
2018,01,20,11,27,4.50
2018,01,20,11,28,9.20
2018,01,20,11,29,5.20
2018,01,20,11,30,7.60
2018,01,20,11,31,6.20
2018,01,20,11,32,7.50
2018,01,20,11,33,6.60
2018,01,20,11,34,3.70
2018,01,20,11,35,5.70
2018,01,20,11,36,3.90
2018,01,20,11,37,2.00
2018,01,20,11,38,0.90
2018,01,20,11,39,1.40
2018,01,20,11,40,5.40
2018,01,20,11,41,9.90
2018,01,20,11,42,6.40
2018,01,20,11,43,9.90
2018,01,20,11,44,5.70
2018,01,20,11,45,3.90
2018,01,20,11,46,1.30
2018,01,20,11,47,2.60
2018,01,20,11,48,5.00
2018,01,20,11,49,4.80
2018,01,20,11,50,5.50
2018,01,20,11,51,5.80
2018,01,20,11,52,4.50
2018,01,20,11,53,9.20
2018,01,20,11,54,7.70
2018,01,20,11,55,6.20
2018,01,20,11,56,6.00
2018,01,20,11,57,5.20
2018,01,20,11,58,7.50
2018,01,20,11,59,7.70
2018,01,20,12,00,4.10
2018,01,20,12,01,7.30
2018,01,20,12,02,3.50
2018,01,20,12,03,11.80
2018,01,20,12,04,8.10
2018,01,20,12,05,4.10
2018,01,20,12,06,3.00
2018,01,20,12,07,7.60
2018,01,20,12,08,6.70
2018,01,20,12,09,6.40
2018,01,20,12,10,6.00
2018,01,20,12,11,7.40
2018,01,20,12,12,6.00
2018,01,20,12,13,6.30
2018,01,20,12,14,6.10
2018,01,20,12,15,4.10
2018,01,20,12,16,5.60
2018,01,20,12,17,6.10
2018,01,20,12,18,9.30
2018,01,20,12,19,7.50
2018,01,20,12,20,6.00
2018,01,20,12,21,7.80
2018,01,20,12,22,5.80
2018,01,20,12,23,7.40
2018,01,20,12,24,6.90
2018,01,20,12,25,10.60
2018,01,20,12,26,8.70
2018,01,20,12,27,7.90
2018,01,20,12,28,6.80
2018,01,20,12,29,5.50
2018,01,20,12,30,8.70
2018,01,20,12,31,9.60
2018,01,20,12,32,9.00
2018,01,20,12,33,7.10
2018,01,20,12,34,7.20
2018,01,20,12,35,7.90
2018,01,20,12,36,10.00
2018,01,20,12,37,4.30
2018,01,20,12,38,3.30
2018,01,20,12,39,7.40
2018,01,20,12,40,5.10
2018,01,20,12,41,3.20
2018,01,20,12,42,4.50
2018,01,20,12,43,4.70
2018,01,20,12,44,2.30
2018,01,20,12,45,2.10
2018,01,20,12,46,0.90
2018,01,20,12,47,3.60
2018,01,20,12,48,2.20
2018,01,20,12,49,6.90
2018,01,20,12,50,6.90
2018,01,20,12,51,6.70
2018,01,20,12,52,5.20
2018,01,20,12,53,4.90
2018,01,20,12,54,5.30
2018,01,20,12,55,1.80
2018,01,20,12,56,4.70
2018,01,20,12,57,2.90
2018,01,20,12,58,0.70
2018,01,20,12,59,6.80
2018,01,20,13,00,5.40
2018,01,20,13,01,2.10
2018,01,20,13,02,6.40
2018,01,20,13,03,6.60
2018,01,20,13,04,11.00
2018,01,20,13,05,7.90
2018,01,20,13,06,7.40
2018,01,20,13,07,9.50
2018,01,20,13,08,7.80
2018,01,20,13,09,13.40
2018,01,20,13,10,17.50
2018,01,20,13,11,16.50
2018,01,20,13,12,13.30
2018,01,20,13,13,6.20
2018,01,20,13,14,5.20
2018,01,20,13,15,8.10
2018,01,20,13,16,4.80
2018,01,20,13,17,4.20
2018,01,20,13,18,8.00
2018,01,20,13,19,9.30
2018,01,20,13,20,5.20
2018,01,20,13,21,1.50
2018,01,20,13,22,1.70
2018,01,20,13,23,2.10
2018,01,20,13,24,5.10
2018,01,20,13,25,6.30
2018,01,20,13,26,8.70
2018,01,20,13,27,11.90
2018,01,20,13,28,4.10
2018,01,20,13,29,12.00
2018,01,20,13,30,9.20
2018,01,20,13,31,8.50
2018,01,20,13,32,10.50
2018,01,20,13,33,12.20
2018,01,20,13,34,11.80
2018,01,20,13,35,10.60
2018,01,20,13,36,5.10
2018,01,20,13,37,5.50
2018,01,20,13,38,1.90
2018,01,20,13,39,1.10
2018,01,20,13,40,0.80
2018,01,20,13,41,1.20
2018,01,20,13,42,7.00
2018,01,20,13,43,5.60
2018,01,20,13,44,2.70
2018,01,20,13,45,4.80
2018,01,20,13,46,4.80
2018,01,20,13,47,3.90
2018,01,20,13,48,3.20
2018,01,20,13,49,1.20
2018,01,20,13,50,4.50
2018,01,20,13,51,1.50
2018,01,20,13,52,2.50
2018,01,20,13,53,3.50
2018,01,20,13,54,0.40
2018,01,20,13,55,0.00
2018,01,20,13,56,0.10
2018,01,20,13,57,0.10
2018,01,20,13,58,3.00
2018,01,20,13,59,0.80
2018,01,20,14,00,0.10
2018,01,20,14,01,0.00
2018,01,20,14,02,0.50
2018,01,20,14,03,2.70
2018,01,20,14,04,1.30
2018,01,20,14,05,0.60
2018,01,20,14,06,0.10
2018,01,20,14,07,1.80
2018,01,20,14,08,0.80
2018,01,20,14,09,0.30
2018,01,20,14,10,1.30
2018,01,20,14,11,0.40
2018,01,20,14,12,1.70
2018,01,20,14,13,6.00
2018,01,20,14,14,6.90
2018,01,20,14,15,7.10
2018,01,20,14,16,7.20
2018,01,20,14,17,5.60
2018,01,20,14,18,5.20
2018,01,20,14,19,5.80
2018,01,20,14,20,6.10
2018,01,20,14,21,4.00
2018,01,20,14,22,3.90
2018,01,20,14,23,4.70
2018,01,20,14,24,4.80
2018,01,20,14,25,5.20
2018,01,20,14,26,6.10
2018,01,20,14,27,7.00
2018,01,20,14,28,5.90
2018,01,20,14,29,5.80
2018,01,20,14,30,4.40
2018,01,20,14,31,5.70
2018,01,20,14,32,6.10
2018,01,20,14,33,4.30
2018,01,20,14,34,1.60
2018,01,20,14,35,4.80
2018,01,20,14,36,6.60
2018,01,20,14,37,5.50
2018,01,20,14,38,6.30
2018,01,20,14,39,7.50
2018,01,20,14,40,7.50
2018,01,20,14,41,6.60
2018,01,20,14,42,5.60
2018,01,20,14,43,7.20
2018,01,20,14,44,6.00
2018,01,20,14,45,4.00
2018,01,20,14,46,2.60
2018,01,20,14,47,4.20
2018,01,20,14,48,4.80
2018,01,20,14,49,2.70
2018,01,20,14,50,4.00
2018,01,20,14,51,2.10
2018,01,20,14,52,5.80
2018,01,20,14,53,5.80
2018,01,20,14,54,5.90
2018,01,20,14,55,5.10
2018,01,20,14,56,3.70
2018,01,20,14,57,2.30
2018,01,20,14,58,5.60
2018,01,20,14,59,3.20
2018,01,20,15,00,4.20
2018,01,20,15,01,4.20
2018,01,20,15,02,5.20
2018,01,20,15,03,4.30
2018,01,20,15,04,4.30
2018,01,20,15,05,4.50
2018,01,20,15,06,6.30
2018,01,20,15,07,6.00
2018,01,20,15,08,4.00
2018,01,20,15,09,5.90
2018,01,20,15,10,4.00
2018,01,20,15,11,4.20
2018,01,20,15,12,3.00
2018,01,20,15,13,1.30
2018,01,20,15,14,0.10
2018,01,20,15,15,1.70
2018,01,20,15,16,3.00
2018,01,20,15,17,2.60
2018,01,20,15,18,2.20
2018,01,20,15,19,3.00
2018,01,20,15,20,1.80
2018,01,20,15,21,1.00
2018,01,20,15,22,0.30
2018,01,20,15,23,0.10
2018,01,20,15,24,0.10
2018,01,20,15,25,0.50
2018,01,20,15,26,0.10
2018,01,20,15,27,0.00
2018,01,20,15,28,0.00
2018,01,20,15,29,0.10
2018,01,20,15,30,0.00
2018,01,20,15,31,0.00
2018,01,20,15,32,0.00
2018,01,20,15,33,0.50
2018,01,20,15,34,0.90
2018,01,20,15,35,0.40
2018,01,20,15,36,0.20
2018,01,20,15,37,2.00
2018,01,20,15,38,1.60
2018,01,20,15,39,2.40
2018,01,20,15,40,0.70
2018,01,20,15,41,1.50
2018,01,20,15,42,2.30
2018,01,20,15,43,0.20
2018,01,20,15,44,3.70
2018,01,20,15,45,1.20
2018,01,20,15,46,3.40
2018,01,20,15,47,3.50
2018,01,20,15,48,1.40
2018,01,20,15,49,3.90
2018,01,20,15,50,2.70
2018,01,20,15,51,2.60
2018,01,20,15,52,1.30
2018,01,20,15,53,1.40
2018,01,20,15,54,0.90
2018,01,20,15,55,7.70
2018,01,20,15,56,3.50
2018,01,20,15,57,1.80
2018,01,20,15,58,2.10
2018,01,20,15,59,4.10
2018,01,20,16,00,5.00
2018,01,20,16,01,1.60
2018,01,20,16,02,0.50
2018,01,20,16,03,3.20
2018,01,20,16,04,2.40
2018,01,20,16,05,2.00
2018,01,20,16,06,1.60
2018,01,20,16,07,2.00
2018,01,20,16,08,6.00
2018,01,20,16,09,0.50
2018,01,20,16,10,4.40
2018,01,20,16,11,6.10
2018,01,20,16,12,4.70
2018,01,20,16,13,4.40
2018,01,20,16,14,7.00
2018,01,20,16,15,3.40
2018,01,20,16,16,1.60
2018,01,20,16,17,0.10
2018,01,20,16,18,0.10
2018,01,20,16,19,1.60
2018,01,20,16,20,0.40
2018,01,20,16,21,2.50
2018,01,20,16,22,4.50
2018,01,20,16,23,4.50
2018,01,20,16,24,2.80
2018,01,20,16,25,0.40
2018,01,20,16,26,0.10
2018,01,20,16,27,5.00
2018,01,20,16,28,4.50
2018,01,20,16,29,1.70
2018,01,20,16,30,2.00
2018,01,20,16,31,5.80
2018,01,20,16,32,8.10
2018,01,20,16,33,5.10
2018,01,20,16,34,4.80
2018,01,20,16,35,2.20
2018,01,20,16,36,2.50
2018,01,20,16,37,3.80
2018,01,20,16,38,3.50
2018,01,20,16,39,4.60
2018,01,20,16,40,1.90
2018,01,20,16,41,0.10
2018,01,20,16,42,0.00
2018,01,20,16,43,0.00
2018,01,20,16,44,0.00
2018,01,20,16,45,0.00
2018,01,20,16,46,0.00
2018,01,20,16,47,0.00
2018,01,20,16,48,0.20
2018,01,20,16,49,0.00
2018,01,20,16,50,0.10
2018,01,20,16,51,0.20
2018,01,20,16,52,0.10
2018,01,20,16,53,0.00
2018,01,20,16,54,0.00
2018,01,20,16,55,0.00
2018,01,20,16,56,1.30
2018,01,20,16,57,0.20
2018,01,20,16,58,1.20
2018,01,20,16,59,3.80
2018,01,20,17,00,4.10
2018,01,20,17,01,5.40
2018,01,20,17,02,5.20
2018,01,20,17,03,2.60
2018,01,20,17,04,0.80
2018,01,20,17,05,2.40
2018,01,20,17,06,3.50
2018,01,20,17,07,3.50
2018,01,20,17,08,7.10
2018,01,20,17,09,5.60
2018,01,20,17,10,0.70
2018,01,20,17,11,2.50
2018,01,20,17,12,0.20
2018,01,20,17,13,3.30
2018,01,20,17,14,1.50
2018,01,20,17,15,0.70
2018,01,20,17,16,0.80
2018,01,20,17,17,0.00
2018,01,20,17,18,0.00
2018,01,20,17,19,0.00
2018,01,20,17,20,0.00
2018,01,20,17,21,0.00
2018,01,20,17,22,0.00
2018,01,20,17,23,0.00
2018,01,20,17,24,0.00
2018,01,20,17,25,0.00
2018,01,20,17,26,1.10
2018,01,20,17,27,3.60
2018,01,20,17,28,0.40
2018,01,20,17,29,1.10
2018,01,20,17,30,2.80
2018,01,20,17,31,0.20
2018,01,20,17,32,0.20
2018,01,20,17,33,0.00
2018,01,20,17,34,0.20
2018,01,20,17,35,0.20
2018,01,20,17,36,0.00
2018,01,20,17,37,0.20
2018,01,20,17,38,0.00
2018,01,20,17,39,0.00
2018,01,20,17,40,0.00
2018,01,20,17,41,0.00
2018,01,20,17,42,0.00
2018,01,20,17,43,0.00
2018,01,20,17,44,0.00
2018,01,20,17,45,0.00
2018,01,20,17,46,0.00
2018,01,20,17,47,0.40
2018,01,20,17,48,0.00
2018,01,20,17,49,0.20
2018,01,20,17,50,0.30
2018,01,20,17,51,0.50
2018,01,20,17,52,0.00
2018,01,20,17,53,0.10
2018,01,20,17,54,0.10
2018,01,20,17,55,0.50
2018,01,20,17,56,1.70
2018,01,20,17,57,1.80
2018,01,20,17,58,1.00
2018,01,20,17,59,0.10